INTELSAT 33E DEB, 64411

Orbit data source: Space-Track

INTELSAT 33E DEB, 64411 is space debris in GEO originally from a launch on Wed, 24 Aug 2016 UTC launched from the French Guiana (FRGUI). Debris objects in space refer to the collection of defunct objects orbiting the Earth. Examples of debris include non-operational satellites, rocket bodies, and fragments generated from explosions, collisions, or faulty payload assembly.

Loading next visibility...
Identifier
64411, 2016-053AR
Orbit
GEO
Country
Flag of UnknownUnknown / ITSO
Related business
Manufacturer
Boeing/ES
Mission
Spacecraft
Bus & Motor
Unknown
Mass
Unknown
Launch date (UTC)
2016-08-24 (9 years ago)
Launch vehicle
Unknown
Launch site
French Guiana (FRGUI)
Object type
Payload
Rocket body
Debris
Shape & HBR
Unknown shape, 1.1 m
Radar Cross Section
RCS unknown

Expand to show TLE details & history
Last TLE update: 2 months ago

TLE from 2 months ago
0 INTELSAT 33E DEB
1 64411U 16053AR  25254.79978212 -.00000268  00000-0  00000-0 0  9991
2 64411   0.8142  41.5853 0092358 289.3494  28.5679  1.00926776  3137
Epoch: 2025-09-11T19:11Z
TLE epoch observation values (Epoch: 2025-09-11T19:11:41.175Z)
Latitude
-0.54575°
Longitude
81.02456°
Altitude
35,262.057 km
Speed
3.107 km/s
True Right ascension
00h 00m 00s
True Declination
0° 32' 43"
Sunlit
Object was in daylight at epoch
Visualization orbit readout
Latitude
Unknown
Longitude
Unknown
Altitude
Unknown
Speed
Unknown
Apparent Right ascension
Unknown
Apparent Declination
Unknown
Sunlit
N/A
Visualization observer readout
Local Sidereal Time
04:01:17
Azimuth
Unknown
Elevation
Unknown
Doppler factor
Unknown
Orbital elements
Apogee altitude
35,992.794 km
Perigee altitude
35,217.297 km
Semi-major axis
41,983.183 km
Eccentricity
0.00924
Inclination
0.8142°
RAAN
41.5853°
Arg. of periapsis
289.3494°
True anomaly
29.07918°
Mean anomaly
28.5679°
Eccentric anomaly
28.82302°
Mean motion
0.25231 °/min
Orbital period
1,426.83 mins
BSTAR
0
Loading maneuver chart data...
Computing Atmospheric mass density...
Loading historical data...
Loading historical data...
Loading historical data...
Loading historical data...
Loading historical data...
Loading historical data...
Loading historical data...

Documentation

Showing up to 5 results
|